Location: Wangen+im+Allg�u
(47.7098°N, 9.8383°E)
Time: 04:04:13
(UTC+01:00)

ISS - Visible Passes

Search period start: 22 February 2018 00:00
Search period end: 04 March 2018 00:00
Orbit: 403 x 407 km, 51.6° (Epoch: 22 February)

Date Brightness Start Highest point End Pass type
(mag) Time Alt. Az. Time Alt. Az. Time Alt. Az.
26 Feb -1.0 06:24:23 10° S 06:26:43 18° SE 06:29:03 10° E visible
27 Feb -0.7 05:33:55 10° SSE 05:34:42 11° SE 05:35:29 10° ESE visible
28 Feb -2.3 06:15:24 10° SSW 06:18:25 35° SE 06:21:28 10° ENE visible
01 Mar -1.6 05:24:06 12° S 05:26:17 22° SE 05:28:53 10° E visible
02 Mar -1.0 04:34:15 13° SE 04:34:15 13° SE 04:35:50 10° ESE visible
02 Mar -3.6 06:06:56 10° SW 06:10:12 69° SSE 06:13:29 10° ENE visible
03 Mar -2.9 05:16:56 31° SSW 05:17:57 42° SSE 05:21:05 10° ENE visible
